Location: Drocourt
(49.0571°N, 1.7669°E)
Time: 15:21:53
(UTC+00:00)

Vanguard 2 Rocket - Pass Details

Date: 15 April 2024
Orbit: 556 x 3304 km, 32.9° (Epoch: 22 May)

Event Time Altitude Azimuth Distance (km) Brightness Sun altitude
Rises 01:45:03 0° 259° (WSW) 7,284 11.1 -26.1°
Enters shadow 01:45:47 - 258° (WSW) 7,143 11.1 -26.0°
Exits shadow 01:58:56 28° 237° (WSW) 4,646 9.9 -24.9°
Maximum altitude 02:07:48 43° 192° (SSW) 3,538 9.4 -24.0°
Drops below altitude 10° 02:20:06 10° 127° (SE) 4,493 10.4 -22.8°
Sets 02:23:15 0° 120° (ESE) 5,157 10.9 -22.4°
